DW7355 Weather Reports


Display with metric or nautical units.
time (UTC)temp
F
wind
direction
speed
MPH
gust
MPH
rain 1hr
in
rain 24hr
in
rain mn
in
humidity
%
barometer
mb
20210925011556 70 231 0.0 3.0 0.00 0.05 0.05 69 1017.0
20210925010027 70 287 0.0 3.0 0.00 0.05 0.05 75 1017.0
20210925004537 70 280 0.0 3.0 0.00 0.05 0.05 80 1017.0
20210925003101 70 255 1.0 3.0 0.00 0.05 0.05 83 1017.0
20210925001528 70 263 0.0 1.0 0.00 0.05 0.05 84 1017.0
20210925000053 71 242 1.0 5.0 0.00 0.05 0.05 84 1016.8
20210924234535 72 267 0.0 4.0 0.00 0.05 0.05 85 1016.6
20210924233031 72 270 2.0 5.0 0.00 0.05 0.05 85 1016.5
20210924231529 73 283 0.0 5.0 0.00 0.05 0.05 84 1016.3
20210924230055 73 199 0.0 3.0 0.00 0.05 0.05 85 1016.2
20210924224520 74 212 1.0 4.0 0.00 0.05 0.05 85 1016.1
20210924223039 74 236 0.0 5.0 0.00 0.05 0.05 84 1016.0
20210924221524 74 208 2.0 8.0 0.00 0.05 0.05 85 1015.8
20210924220023 74 228 0.0 4.0 0.00 0.05 0.05 85 1015.7
20210924214525 75 260 1.0 3.0 0.00 0.05 0.05 84 1015.7
20210924213026 76 210 0.0 5.0 0.00 0.05 0.05 83 1015.5
20210924211531 76 283 1.0 5.0 0.00 0.05 0.05 82 1015.6
20210924210021 76 260 1.0 7.0 0.00 0.05 0.05 82 1015.4
20210924204515 76 134 1.0 6.0 0.00 0.05 0.05 82 1015.3
20210924203017 77 270 3.0 9.0 0.00 0.05 0.05 81 1015.2
20210924201531 77 226 3.0 11.0 0.00 0.05 0.05 80 1015.0
20210924200019 77 239 3.0 9.0 0.00 0.05 0.05 80 1015.1
20210924194514 77 176 4.0 9.0 0.00 0.05 0.05 79 1015.0
20210924193019 77 226 4.0 9.0 0.00 0.05 0.05 81 1015.0
20210924191547 77 239 2.0 8.0 0.00 0.05 0.05 82 1015.1
20210924190008 77 153 5.0 10.0 0.00 0.05 0.05 82 1015.0
20210924184513 77 149 0.0 9.0 0.00 0.05 0.05 83 1015.0
20210924183015 76 149 4.0 11.0 0.00 0.05 0.05 84 1014.8
20210924181512 76 180 3.0 10.0 0.00 0.05 0.05 86 1014.7
20210924180005 75 271 1.0 8.0 0.03 0.05 0.05 89 1015.1
20210924174502 75 158 2.0 9.0 0.03 0.05 0.05 90 1015.1
20210924173155 74 233 1.0 8.0 0.03 0.05 0.05 89 1015.5
20210924171625 75 96 4.0 9.0 0.03 0.05 0.05 87 1015.9
20210924170130 76 147 3.0 15.0 0.00 0.02 0.02 83 1016.1
20210924164633 77 160 3.0 8.0 0.00 0.19 0.02 83 1015.9
20210924163130 76 260 3.0 10.0 0.00 0.19 0.02 84 1015.8
20210924161734 75 150 5.0 13.0 0.00 0.19 0.02 85 1016.1
20210924160307 75 228 2.0 9.0 0.00 0.19 0.02 86 1016.2
20210924154637 75 225 3.0 12.0 0.00 0.19 0.02 86 1016.5
20210924153147 75 236 2.0 11.0 0.02 0.19 0.02 87 1016.6
20210924151734 75 168 1.0 10.0 0.02 0.19 0.02 87 1016.4
20210924150120 75 99 2.0 7.0 0.02 0.19 0.02 88 1016.6
20210924144648 75 211 4.0 14.0 0.02 0.19 0.02 88 1016.5
20210924143204 77 263 2.0 9.0 0.00 0.17 0.00 83 1016.6
20210924141741 77 113 4.0 11.0 0.00 0.17 0.00 82 1016.4
20210924140137 77 139 5.0 11.0 0.00 0.17 0.00 82 1016.4
20210924134734 77 115 4.0 11.0 0.00 0.17 0.00 83 1016.4
20210924133119 76 231 3.0 9.0 0.00 0.17 0.00 85 1016.3
20210924131614 76 150 1.0 9.0 0.00 0.17 0.00 86 1015.9
20210924130138 75 187 2.0 7.0 0.00 0.17 0.00 86 1016.0
20210924124614 75 235 4.0 12.0 0.00 0.17 0.00 88 1015.8
20210924123127 75 128 4.0 11.0 0.00 0.17 0.00 88 1015.7
20210924121555 74 203 1.0 8.0 0.00 0.17 0.00 89 1015.8
20210924120053 74 208 1.0 8.0 0.00 0.17 0.00 89 1015.9
20210924114719 74 173 2.0 8.0 0.00 0.17 0.00 89 1015.8
20210924113124 74 134 2.0 12.0 0.00 0.17 0.00 90 1015.8
20210924111554 73 255 1.0 7.0 0.00 0.17 0.00 91 1016.1
20210924110029 73 222 1.0 5.0 0.00 0.17 0.00 91 1016.1
20210924104612 73 128 3.0 9.0 0.00 0.17 0.00 91 1016.4
20210924103047 73 146 1.0 7.0 0.00 0.17 0.00 91 1016.4
20210924101600 73 136 1.0 10.0 0.00 0.17 0.00 90 1016.5
20210924100026 73 139 2.0 7.0 0.00 0.17 0.00 90 1016.6
20210924094554 73 220 1.0 7.0 0.00 0.17 0.00 90 1016.8
20210924093019 0 0.0 0.0 0.00 0.17 0.00 1016.8
20210924083122 0 0.0 0.0 0.00 0.17 0.00 1016.6
20210924081623 71 152 1.0 5.0 0.00 0.17 0.00 97 1016.6
20210924080128 71 176 0.0 6.0 0.00 0.17 0.00 93 1016.5
20210924074643 71 153 2.0 5.0 0.00 0.17 0.00 93 1016.6
20210924073058 71 285 0.0 6.0 0.00 0.17 0.00 94 1016.7
20210924071707 71 126 2.0 6.0 0.00 0.17 0.00 94 1016.8
20210924070226 71 153 1.0 5.0 0.00 0.17 0.00 94 1016.9
20210924064611 71 103 1.0 5.0 0.00 0.17 0.00 94 1017.0
20210924063100 71 139 0.0 6.0 0.00 0.17 0.00 93 1017.2
20210924061629 70 146 3.0 6.0 0.00 0.17 0.00 93 1017.1
20210924060136 70 163 0.0 7.0 0.00 0.17 0.00 93 1017.2
20210924054610 71 203 0.0 3.0 0.00 0.17 0.00 92 1017.3
20210924053108 71 152 1.0 5.0 0.00 0.17 0.00 92 1017.3
20210924051606 71 155 1.0 10.0 0.00 0.17 0.00 91 1017.5
20210924050105 71 137 0.0 9.0 0.00 0.17 0.00 91 1017.5
20210924044559 71 102 1.0 5.0 0.00 0.17 0.00 91 1017.7
20210924043039 71 129 0.0 4.0 0.00 0.17 0.00 91 1017.9
20210924041558 71 141 1.0 4.0 0.00 0.17 0.00 90 1017.9
20210924040037 71 116 0.0 3.0 0.00 0.17 0.00 90 1017.9
20210924034549 71 169 1.0 5.0 0.00 0.17 0.17 89 1018.1
20210924033053 72 131 3.0 7.0 0.00 0.17 0.17 89 1018.1
20210924031554 72 156 1.0 6.0 0.00 0.17 0.17 88 1018.1
20210924030109 72 120 1.0 8.0 0.00 0.17 0.17 88 1018.0
20210924024534 72 165 2.0 5.0 0.00 0.17 0.17 89 1018.2
20210924023033 72 139 1.0 7.0 0.00 0.17 0.17 90 1018.3
20210924021539 72 145 1.0 4.0 0.00 0.17 0.17 89 1018.4
20210924020030 72 155 2.0 7.0 0.00 0.17 0.17 88 1018.4
20210924014549 73 170 0.0 5.0 0.00 0.17 0.17 88 1018.3
20210924013023 73 134 0.0 6.0 0.00 0.17 0.17 87 1018.3